Content
SEND FEEDBACK

Daily
Averages
Monthly
Summary
United States of America

UPI, GUAM


Home > North America > United States > Guam
Elevation: 16 meters     Latitude: 13 34N     Longitude: 144 55E

WEATHER
 
SELECT A DAY
Number of Records: 213,129;   Date Range: 1/1/95 - 10/1/14
 
SHARE

PRINT THIS DATA

[ ← Previous Day ]
WEATHER ALMANAC - 21 JANUARY, 2013
[ Next Day → ]
[ °F ]   °C
Weather ElementAverageHighLow
Temperature24.4 °C26.1 °C (2:54 pm)23 °C (6:30 am)
Dewpoint22.7 °C24 °C (1:16 am)21.1 °C (4:54 pm)
Humidity90.5 %100 % (1:16 am)76 % (4:54 pm)
Barometer1013.2 hPa1014.9 hPa (9:00 am)1011.2 hPa (2:54 pm)
Wind Speed32.7 km/h50.1 km/h (4:02 am)
Wind Gust61.2 km/h (4:02 am)
Weather ElementAverage
Visibility10.5 km
Wind DirectionNE (43 °)

Weather ElementTotal
Precipitation10.67 mm
Cooling Degree Days6.2 (Base 18.3)
Growing Degree Days14.6 (Base 10)
Averaged from 47 records on 21 January, 2013
WEATHER CONDITIONS BREAKOUT
WIND DIRECTION BREAKOUT
WEATHER BY HOUR - 21 JANUARY, 2013
[ °F ]   °C
Local TimeTemperatureDewpointHumidityBarometerVisibilityWind DirectionWind SpeedGust SpeedPrecipitationEventsConditions
1:16 AM24 °C24 °C100 %1013.2 hPa9.7 kmNE (40°)29.6 km/h40.7 km/h0 mmRainLight Rain
1:54 AM24.4 °C23.3 °C94 %1012.2 hPa14.5 kmNE (50°)31.5 km/h50.1 km/h0 mmOvercast
2:54 AM23.9 °C23.9 °C100 %1011.9 hPa6.4 kmENE (60°)29.6 km/h38.9 km/h1.52 mmRainRain
3:01 AM24 °C24 °C100 %1012.2 hPa4 kmENE (60°)31.5 km/h46.3 km/h0 mmRainRain
3:20 AM24 °C24 °C100 %1011.9 hPa8 kmNE (40°)27.8 km/h40.7 km/h0.76 mmRainRain
3:54 AM23.9 °C23.3 °C96 %1011.5 hPa11.3 kmNE (50°)29.6 km/h42.6 km/h1.02 mmRainRain
4:02 AM24 °C23 °C94 %1012.2 hPa4.8 kmNE (50°)50.1 km/h61.2 km/h0 mmRainRain
4:09 AM24 °C23 °C94 %1012.2 hPa4 kmENE (60°)33.3 km/h61.2 km/h0.25 mmRainRain
4:13 AM24 °C23 °C94 %1012.2 hPa4.8 kmNE (50°)31.5 km/h0.25 mmRainRain
4:25 AM24 °C23 °C94 %1012.2 hPa4.8 kmNE (50°)31.5 km/h50.1 km/h0.51 mmRainRain
4:34 AM24 °C23 °C94 %1012.2 hPa6.4 kmENE (60°)27.8 km/h44.4 km/h0.51 mmRainRain
4:40 AM24 °C23 °C94 %1012.5 hPa4 kmNE (40°)27.8 km/h42.6 km/h1.02 mmRainRain
4:54 AM23.9 °C23.3 °C96 %1011.9 hPa6.4 kmNE (50°)27.8 km/h1.52 mmRainRain
5:54 AM23.9 °C23.3 °C96 %1012.2 hPa9.7 kmNE (50°)31.5 km/h40.7 km/h1.52 mmRainRain
6:21 AM24 °C23 °C94 %1013.2 hPa9.7 kmNE (40°)33.3 km/h44.4 km/h0.25 mmRainRain
6:30 AM23 °C23 °C100 %1013.2 hPa6.4 kmNE (40°)31.5 km/h48.1 km/h0.25 mmRainRain
6:54 AM23.9 °C23.3 °C96 %1012.9 hPa11.3 kmNE (40°)35.2 km/h46.3 km/h0.25 mmRainRain
7:54 AM23.9 °C23.3 °C96 %1013.9 hPa9.7 kmNE (40°)35.2 km/h48.1 km/h0.25 mmRainRain
8:34 AM24 °C23 °C94 %1014.6 hPa4.8 kmNE (40°)29.6 km/h44.4 km/h0 mmRainLight Rain
8:54 AM23.9 °C23.3 °C96 %1014.2 hPa8 kmNE (40°)25.9 km/h46.3 km/h0 mmRainLight Rain
9:00 AM24 °C23 °C94 %1014.9 hPa4.8 kmNNE (30°)33.3 km/h42.6 km/h0 mmRainLight Rain
9:02 AM24 °C23 °C94 %1014.9 hPa4 kmNE (40°)35.2 km/h44.4 km/h0.25 mmRainLight Rain
9:18 AM24 °C23 °C94 %1014.9 hPa6.4 kmNE (40°)33.3 km/h44.4 km/h0.25 mmRainLight Rain
9:54 AM23.9 °C23.3 °C96 %1014.2 hPa4.8 kmNE (40°)37 km/h48.1 km/h0.25 mmRainLight Rain
10:33 AM24 °C23 °C94 %1014.9 hPa9.7 kmNE (40°)38.9 km/h46.3 km/h0 mmRainLight Rain
10:54 AM23.9 °C22.8 °C94 %1014.2 hPa11.3 kmNNE (30°)35.2 km/h48.1 km/h0 mmRainLight Rain
11:29 AM24 °C23 °C94 %1014.6 hPa9.7 kmNE (40°)37 km/h57.5 km/h0 mmRainLight Rain
11:37 AM24 °C23 °C94 %1014.6 hPa8 kmNE (40°)35.2 km/h44.4 km/h0 mmRainLight Rain
11:54 AM24.4 °C23.3 °C94 %1013.9 hPa9.7 kmNE (40°)37 km/h48.1 km/h0 mmRainLight Rain
12:54 PM25 °C22.8 °C88 %1012.9 hPa11.3 kmNE (40°)37 km/h51.8 km/h0 mmRainLight Rain
1:01 PM25 °C23 °C89 %1013.5 hPa16.1 kmNE (40°)33.3 km/h53.8 km/h0 mmRainLight Rain
1:54 PM25.6 °C22.2 °C81 %1011.9 hPa12.9 kmNE (40°)25.9 km/h40.7 km/h0 mmRainLight Rain
2:32 PM26 °C22 °C78 %1012.2 hPa16.1 kmNE (40°)33.3 km/h55.5 km/hOvercast
2:54 PM26.1 °C21.7 °C77 %1011.2 hPa16.1 kmNE (40°)35.2 km/h50.1 km/hOvercast
3:39 PM26 °C22 °C78 %1011.9 hPa16.1 kmNNE (30°)37 km/h55.5 km/hOvercast
3:54 PM26.1 °C21.7 °C77 %1011.5 hPa16.1 kmNE (40°)40.7 km/h50.1 km/hOvercast
4:01 PM26 °C22 °C78 %1012.2 hPa16.1 kmNE (40°)35.2 km/h50.1 km/hOvercast
4:54 PM25.6 °C21.1 °C76 %1011.9 hPa16.1 kmNE (40°)35.2 km/h46.3 km/hOvercast
5:54 PM25.6 °C21.1 °C76 %1012.5 hPa16.1 kmNE (40°)29.6 km/h44.4 km/hOvercast
6:54 PM24.4 °C21.7 °C85 %1013.2 hPa16.1 kmNE (40°)24.1 km/h38.9 km/h0 mmRainLight Rain
7:54 PM23.9 °C22.2 °C90 %1013.5 hPa16.1 kmNE (40°)31.5 km/h42.6 km/h0 mmOvercast
8:54 PM24.4 °C21.7 °C85 %1014.2 hPa16.1 kmNE (40°)37 km/h50.1 km/hOvercast
9:54 PM24.4 °C21.1 °C82 %1014.2 hPa16.1 kmNE (40°)25.9 km/hOvercast
10:13 PM24 °C22 °C89 %1014.9 hPa14.5 kmNE (50°)29.6 km/h44.4 km/hOvercast
10:21 PM24 °C22 °C89 %1014.9 hPa16.1 kmNE (40°)20.4 km/hOvercast
10:54 PM25 °C21.1 °C79 %1013.9 hPa16.1 kmNE (40°)29.6 km/hOvercast
11:54 PM24.4 °C21.7 °C85 %1013.9 hPa12.9 kmNE (50°)37 km/h46.3 km/h0 mmRainLight Rain
Hourly data recorded from PGUM, located 0 kilometers away from Upi, Guam







STORIES FROM OUR PARTNERS